RH
29 29 29 30 30 30 31 32 33 35 36 38 39 40 41 42 43 43 44 45 45 45 45 45 45 44 44 43 42 40 38 37 35 34 32 31 30 29 29 28 28 27 26 26 26 27 29 30 32 33 35 36 38 39 40 41 41 42 43 43 44 44 45 46 46 48 49 51 53 54 56 57 58 60 61 64 67 70 73 75 75 75 74 73 74
33 33 33 33 33 33 33 34 34 34 35 35 35 36 36 35 36 36 36 36 36 36 36 36 36 35 35 35 35 34 34 34 34 34 33 33 32 32 32 31 30 30 28 27 25 24 23 23 23 22 23 23 24 25 25 27 28 29 31 32 34 36 37 39 41 42 43 45 46 47 48 49 49 50 51 53 55 57 60 62 65 68 70 71 72
37 37 37 37 37 38 38 38 39 39 39 39 39 39 39 39 39 38 38 39 38 38 38 38 37 37 37 36 36 37 37 37 36 36 36 35 35 34 34 33 33 32 31 30 29 28 27 26 25 24 23 22 21 21 21 21 21 21 22 22 23 24 25 27 29 31 33 35 38 40 42 43 44 45 45 46 46 47 49 50 53 56 59 62 65
39 39 39 40 40 40 41 41 41 41 40 40 40 40 40 40 40 40 39 39 39 39 39 38 38 38 38 38 38 38 38 38 37 37 36 36 36 35 35 34 34 34 33 32 31 31 30 29 29 28 27 26 25 25 24 24 23 22 22 21 21 20 20 20 20 21 22 23 25 27 30 32 34 36 38 39 41 42 43 44 45 46 48 51 54
42 42 41 42 42 42 42 42 41 41 39 39 38 38 39 39 39 38 38 38 37 37 36 36 37 36 37 37 37 37 38 38 38 38 37 37 38 38 38 37 36 36 35 34 33 33 32 31 31 30 29 29 28 27 27 26 26 25 24 23 23 22 22 22 21 21 20 20 20 20 21 21 22 24 26 28 30 32 35 37 39 40 42 43 44
45 44 44 44 44 44 44 43 43 42 41 40 40 40 40 40 40 39 39 38 37 37 37 38 38 39 39 40 40 40 41 41 41 41 40 40 41 41 41 40 40 39 39 38 37 37 36 35 35 34 34 33 32 31 30 29 28 27 26 26 25 24 24 23 22 22 21 21 20 20 20 19 19 19 20 20 20 21 22 25 27 30 33 35 38
51 50 50 49 49 49 49 49 48 48 48 48 49 49 49 48 47 45 44 44 43 42 42 42 42 42 43 43 44 44 44 45 45 44 43 43 43 42 42 42 41 41 41 40 40 39 38 37 37 36 36 36 36 36 35 34 33 32 30 29 28 27 26 26 25 24 23 22 21 20 20 19 19 19 19 19 18 18 18 18 19 19 21 23 26
47 47 47 47 47 48 49 49 49 49 51 52 52 52 52 52 51 51 52 51 51 50 50 50 50 50 49 49 50 50 49 50 50 49 48 47 47 46 45 44 43 42 41 40 39 38 37 37 36 36 35 35 35 35 36 36 36 36 35 34 33 32 30 29 28 27 26 24 23 22 21 20 19 19 18 18 17 17 17 17 17 17 17 17 18
34 34 34 34 35 36 37 38 39 40 41 43 44 44 45 46 47 47 48 48 48 49 50 51 52 52 53 53 53 54 53 52 53 52 51 50 49 48 47 46 44 42 41 40 39 38 37 36 35 35 34 34 34 34 34 35 35 36 36 36 36 35 34 33 32 30 29 27 25 24 23 22 21 21 20 19 18 17 16 16 15 15 16 16 16
30 30 29 29 28 28 28 27 27 28 29 29 30 31 32 33 34 35 36 36 38 39 41 42 44 45 45 46 47 48 48 48 48 49 48 47 46 47 46 45 44 43 43 42 41 40 39 38 37 36 36 35 35 35 34 34 34 34 34 35 35 36 36 35 35 33 32 30 29 27 26 24 24 23 22 21 21 19 19 18 17 15 14 13 14
37 36 35 33 32 30 28 27 25 23 22 21 21 21 21 21 22 23 23 24 25 26 28 30 31 33 34 35 36 38 39 39 41 42 42 41 41 41 41 41 41 40 40 39 38 38 37 36 35 35 35 34 33 33 33 33 32 32 32 32 33 33 34 34 34 34 33 32 31 30 29 27 26 25 24 23 22 22 21 21 21 19 16 15 13
41 39 39 37 36 34 32 30 27 25 23 22 21 19 18 17 16 17 16 16 17 16 17 17 18 18 19 20 20 21 22 22 23 24 24 25 24 25 25 25 25 25 25 25 25 24 24 24 24 24 24 25 25 25 25 26 26 26 26 27 28 28 29 30 30 31 31 31 31 30 30 29 28 27 25 25 24 23 22 22 23 23 21 20 17
43 44 44 43 43 40 38 35 32 30 27 25 24 22 21 20 19 19 18 18 17 17 16 16 16 15 15 15 15 15 15 15 15 15 15 15 15 15 15 15 15 14 14 14 13 13 12 12 12 12 13 13 13 14 15 15 16 16 17 17 18 20 21 22 23 24 25 25 26 26 26 26 26 25 24 24 23 22 22 22 22 23 23 23 21
46 47 47 47 47 45 42 39 35 32 30 27 26 24 24 24 23 23 23 23 23 22 21 21 20 20 20 20 19 19 19 18 18 17 17 17 16 16 16 15 15 14 14 13 12 11 10 9 8 8 8 8 8 8 8 8 9 9 10 10 11 12 13 14 15 16 17 18 18 19 19 20 20 20 20 20 20 19 19 19 20 21 21 22 22
49 49 49 48 48 47 44 41 36 33 30 28 27 26 26 25 25 26 26 26 26 26 25 25 24 24 24 23 23 22 21 21 20 20 19 18 18 17 16 16 15 14 14 13 12 11 10 9 8 8 7 7 7 7 7 7 7 7 7 8 8 9 9 10 11 12 13 14 15 15 16 16 17 17 17 17 17 17 16 16 17 17 18 19 20
57 55 55 53 52 51 49 45 40 35 32 30 29 29 28 28 27 27 28 27 28 28 27 27 26 26 26 25 25 24 23 23 22 21 20 19 18 17 16 15 14 13 12 11 10 10 9 8 8 7 7 7 7 7 7 7 7 8 8 8 8 8 9 9 10 10 11 11 12 12 13 14 15 16 17 17 16 16 16 14 14 14 14 15 16
65 64 62 60 59 59 57 52 45 38 34 32 31 31 30 30 30 29 29 29 29 28 28 28 28 28 28 27 27 26 26 25 24 23 22 21 19 17 16 14 13 11 10 9 8 7 7 7 7 7 7 7 7 7 7 7 7 7 7 7 7 7 7 7 8 8 8 8 8 8 8 8 9 10 11 13 13 13 14 13 13 12 11 11 12
72 70 68 65 65 65 64 57 48 40 36 35 34 33 32 31 30 30 30 30 30 30 30 30 30 30 29 29 29 28 28 28 27 26 24 23 21 19 16 14 12 10 9 7 7 6 6 6 6 6 6 6 6 6 6 6 6 5 5 5 5 5 5 5 6 6 6 6 6 6 5 5 5 5 6 7 7 7 8 9 10 9 9 8 8
77 75 73 70 69 69 66 60 50 42 38 37 37 35 34 33 32 32 31 31 31 31 31 31 31 31 31 30 30 30 29 29 28 27 25 24 21 19 16 13 11 9 7 6 6 6 6 6 6 6 6 6 5 5 5 5 5 5 4 4 4 4 5 4 4 5 5 5 5 5 5 5 5 5 5 5 5 5 5 5 6 6 6 6 6
82 80 79 77 75 73 70 63 51 43 40 40 39 37 36 35 34 33 33 32 32 32 32 32 31 31 30 29 29 28 27 27 26 25 23 21 19 16 14 11 9 8 7 6 6 6 6 6 6 6 5 5 5 5 5 5 5 5 5 5 5 5 5 5 5 5 5 4 5 5 5 5 5 5 5 6 6 6 5 5 5 5 5 5 4
87 86 85 84 82 78 74 65 53 46 44 43 42 40 38 36 35 35 35 34 34 34 34 33 32 31 30 29 29 28 27 26 25 23 21 19 17 14 12 10 8 7 7 7 7 6 6 6 5 5 5 5 5 5 5 5 5 5 5 5 5 5 5 5 5 5 5 5 4 4 5 4 5 5 5 6 6 6 5 5 5 5 5 5 4
91 91 90 90 88 82 76 67 54 47 46 46 45 43 40 38 37 37 37 36 36 36 36 35 34 33 32 31 30 30 29 28 26 24 22 20 17 15 12 10 9 9 8 8 8 7 7 6 6 6 5 5 5 5 5 5 5 5 5 5 5 5 5 5 5 5 4 4 4 4 4 4 4 4 4 4 5 5 5 4 4 4 4 4 4
94 95 95 94 92 85 78 69 55 48 47 47 47 45 42 40 38 38 38 37 37 37 37 36 35 34 33 33 32 32 32 30 28 26 24 21 18 16 13 12 11 10 9 9 8 8 7 6 6 6 6 6 6 6 5 5 5 5 5 5 5 4 4 4 4 4 3 4 3 3 3 3 3 3 3 4 4 3 3 3 3 3 4 4 4
98 99 100 99 97 91 84 71 56 48 48 49 48 47 44 41 39 38 38 39 39 39 39 38 37 35 34 34 34 34 34 32 30 28 25 23 20 17 15 13 12 11 10 9 8 8 7 7 7 7 7 7 6 6 6 5 5 5 5 4 4 4 4 4 3 4 4 3 3 3 3 3 3 3 3 3 3 3 3 3 3 3 3 3 4
100 103 104 104 101 97 88 72 56 48 49 50 48 46 45 43 40 40 40 40 41 41 41 41 39 38 36 34 34 34 34 32 31 29 27 24 21 18 16 14 13 11 9 8 8 8 8 7 8 8 7 7 7 6 6 6 5 5 4 4 4 4 4 4 4 3 3 3 3 3 3 3 3 3 3 3 3 3 3 3 3 3 3 3 4
101 105 107 106 103 99 89 71 55 48 49 50 49 47 46 44 43 42 41 41 41 41 42 42 42 40 37 34 33 33 32 31 30 29 27 25 22 19 17 14 12 10 9 9 9 9 9 8 8 8 8 8 7 7 6 5 5 4 4 4 4 4 4 4 4 4 3 3 3 3 3 4 4 3 3 3 3 3 3 3 3 3 3 3 3
103 107 109 107 104 100 90 71 55 49 49 49 49 48 46 44 43 43 42 41 41 41 42 43 43 41 38 34 32 32 32 31 30 29 27 25 22 19 15 12 10 9 9 9 9 9 9 9 8 8 8 8 7 6 5 5 5 4 4 4 4 4 4 4 4 3 4 4 3 4 4 4 4 4 4 3 3 3 3 3 3 3 3 3 3
104 108 108 105 104 102 91 72 56 49 49 49 49 48 46 44 42 41 41 42 42 43 43 43 43 42 39 35 32 31 31 30 29 28 26 23 20 16 12 10 9 9 9 9 9 9 9 9 9 8 8 7 6 6 5 5 5 5 5 4 4 4 4 4 4 4 4 4 4 4 4 4 4 4 4 4 3 3 3 3 3 3 3 3 3
103 106 105 102 102 101 90 70 56 50 50 50 49 48 47 45 42 41 40 41 42 43 44 44 43 42 40 36 32 31 30 29 28 26 24 21 17 13 10 10 10 9 10 9 9 9 9 9 9 8 7 6 6 5 5 5 5 5 5 5 4 4 4 4 4 4 4 4 4 4 4 4 4 4 4 4 4 4 3 3 3 3 3 3 3
101 102 103 100 101 100 86 65 54 51 50 50 50 49 47 46 43 42 40 40 40 41 42 43 43 42 40 36 32 30 29 28 27 25 23 19 14 11 10 10 10 10 10 9 9 9 9 9 8 7 6 6 6 6 6 5 5 5 5 5 5 5 5 5 4 4 4 4 4 4 4 4 4 4 4 4 4 4 4 4 4 4 4 4 4
100 100 101 100 101 97 79 59 52 52 51 50 50 49 48 47 44 42 40 39 39 39 39 41 41 41 40 36 32 29 28 28 27 25 22 17 12 11 10 10 10 10 10 9 9 9 9 9 8 7 6 6 6 6 6 5 5 5 5 6 6 5 5 5 5 5 5 5 5 5 5 4 4 4 4 4 4 4 4 4 4 4 4 4 4
99 101 102 101 100 89 69 54 52 52 51 50 49 48 48 46 44 42 39 37 37 37 37 38 39 39 39 36 31 28 28 27 26 24 21 15 11 11 11 11 11 10 10 9 9 9 9 8 7 7 7 7 7 6 6 6 5 6 6 6 6 6 5 5 5 5 5 5 6 5 5 5 5 5 4 4 4 4 4 4 4 4 4 4 4
101 103 103 100 93 77 59 52 53 52 50 49 48 47 46 45 43 41 38 36 34 35 35 36 37 37 37 35 31 28 27 26 25 24 19 14 11 11 11 11 11 11 10 10 10 10 9 8 7 7 8 7 7 7 6 6 6 6 6 6 6 6 6 6 5 6 5 6 6 6 6 5 5 5 5 5 5 4 4 5 4 5 5 4 5
103 103 102 97 83 65 55 55 55 52 49 47 45 45 44 43 42 40 37 35 33 33 34 35 36 36 36 35 30 27 27 26 25 23 18 12 11 11 11 12 12 11 10 10 10 10 9 8 7 8 8 8 7 7 6 6 6 6 7 6 6 6 6 6 6 6 6 6 6 6 6 5 5 5 5 5 5 5 4 5 5 5 5 5 5
103 102 99 89 71 58 57 57 54 50 46 43 42 41 40 40 40 39 37 34 32 31 32 33 35 35 35 34 30 28 27 26 25 22 16 12 11 11 12 12 12 11 11 11 11 10 9 8 8 9 9 8 7 7 7 6 6 7 7 7 6 6 6 7 6 7 7 7 7 6 6 6 5 5 5 5 5 5 5 5 5 5 5 5 5
102 99 91 74 59 57 59 56 51 47 43 41 39 38 38 38 38 37 35 32 30 29 30 33 35 35 35 34 30 28 27 26 25 21 15 11 11 12 13 13 12 12 11 12 11 10 9 8 8 9 10 8 7 7 7 7 7 8 8 7 7 7 7 7 7 7 7 7 7 7 6 6 6 5 5 5 5 5 5 5 5 5 5 5 5
101 92 77 60 55 59 59 53 49 45 42 40 39 37 36 35 35 35 33 31 30 30 31 33 35 36 36 34 31 29 28 26 24 20 14 11 11 12 13 13 13 12 12 12 12 10 9 8 9 10 10 9 8 7 7 8 8 9 9 8 7 7 7 7 7 7 8 8 7 6 6 6 6 5 5 5 5 5 5 5 5 5 5 5 5
95 79 63 55 58 61 57 51 48 45 42 40 38 36 35 33 33 33 32 31 30 30 31 34 36 37 36 34 30 29 28 26 24 20 14 12 12 13 14 14 13 13 13 12 12 11 9 9 9 10 10 9 8 7 7 9 9 10 10 9 8 8 8 7 7 7 8 8 7 7 6 6 6 5 5 5 5 5 5 5 5 4 4 4 4
80 64 56 58 61 60 55 51 48 45 43 40 37 36 34 32 31 31 31 31 30 30 32 34 36 37 36 33 30 29 28 26 24 19 14 12 13 14 15 15 13 13 13 13 12 11 10 9 10 10 9 9 8 8 7 9 10 10 11 10 10 10 9 8 7 7 8 8 8 7 6 6 6 5 5 5 5 5 5 5 5 5 4 4 4
64 56 57 61 61 59 54 51 49 46 43 40 37 35 33 31 31 30 30 30 30 30 33 35 37 38 36 32 30 30 29 27 24 19 14 12 14 15 15 15 14 14 14 13 12 12 11 10 10 10 9 9 9 8 8 9 11 11 11 11 12 12 11 10 8 8 8 9 8 8 7 6 6 6 5 5 5 5 5 5 5 5 5 4 4
56 57 61 62 61 59 54 52 51 48 44 41 37 34 32 30 30 30 30 30 30 32 35 37 39 39 35 32 31 30 30 28 24 18 14 13 14 15 16 15 14 14 14 13 13 12 12 12 11 10 9 8 9 9 8 10 12 12 12 12 12 13 13 12 10 8 9 9 9 8 7 7 7 7 6 6 6 5 5 5 5 5 5 5 4
57 60 62 62 61 58 54 53 52 48 44 40 36 33 31 29 30 30 30 30 31 33 36 38 40 39 35 32 32 31 30 28 24 18 14 14 15 15 15 15 15 15 15 14 13 13 13 13 12 10 9 8 9 9 9 11 13 13 13 13 13 14 15 13 11 10 9 10 9 8 8 7 7 7 7 6 6 5 5 5 5 5 5 5 5
60 62 63 63 61 58 55 55 53 48 43 38 34 32 30 29 30 30 30 31 33 35 38 40 41 38 35 33 33 32 31 28 23 17 14 15 16 16 15 15 15 16 16 14 13 13 14 14 12 10 9 8 8 9 10 13 14 14 14 14 13 14 16 15 13 11 10 10 10 9 8 7 7 7 7 7 7 6 6 5 5 6 6 6 5
62 64 64 63 61 58 56 55 52 46 40 36 33 30 29 29 30 30 30 32 34 36 39 40 40 37 35 35 34 33 32 28 22 16 15 16 17 16 15 15 15 17 16 15 14 14 14 15 13 10 9 8 8 9 10 13 16 16 15 15 15 14 16 16 15 13 12 12 12 11 9 8 7 7 7 7 7 7 6 6 5 6 6 6 6
64 65 65 63 61 58 56 55 50 43 37 33 31 30 29 29 30 30 31 33 35 37 39 40 39 36 35 36 35 33 31 26 20 16 15 17 18 17 15 15 16 17 16 14 14 14 15 15 13 11 9 8 8 8 10 13 17 18 17 17 16 15 15 16 15 13 13 13 13 13 11 9 8 7 7 7 7 7 7 7 6 6 6 6 6
65 66 65 63 60 58 57 54 47 40 35 32 30 30 29 29 29 30 32 34 36 38 38 38 36 35 35 36 36 34 31 24 18 16 16 18 19 18 16 15 16 17 16 15 15 15 15 15 13 11 9 8 8 8 9 13 17 19 19 18 18 17 17 16 15 13 12 13 14 14 13 11 9 9 8 7 7 7 7 7 7 7 6 6 6
66 66 64 62 60 58 56 51 42 36 32 30 30 30 29 29 30 31 33 35 37 37 37 36 35 35 36 37 37 35 30 23 17 15 17 18 19 18 16 16 17 17 16 15 16 16 15 15 13 11 10 9 8 8 10 13 17 19 19 18 18 18 18 17 15 13 12 12 13 13 13 12 11 10 9 8 8 7 7 6 7 7 7 7 7
66 65 64 62 60 58 54 46 37 32 30 30 30 29 29 29 30 32 34 36 37 36 35 34 35 36 38 37 37 35 29 21 17 16 18 19 19 17 16 15 15 16 16 16 17 17 16 15 13 11 10 9 8 8 10 13 17 19 19 20 19 19 19 18 16 14 13 12 12 13 13 11 10 10 9 9 9 8 7 6 6 7 7 7 7
66 65 63 62 60 57 49 39 32 30 29 30 29 29 29 30 31 32 34 36 36 35 33 34 36 39 39 39 37 33 26 20 17 18 20 20 18 16 16 15 14 13 13 15 18 18 18 15 12 11 10 10 9 9 10 15 19 20 20 20 19 19 20 19 17 15 14 13 14 14 14 12 11 10 9 9 9 8 8 7 6 6 7 7 7
66 64 63 61 58 52 41 33 29 29 29 29 29 29 29 30 31 33 34 36 36 34 33 35 38 39 39 38 35 29 22 18 18 20 22 22 18 15 15 15 14 13 12 13 16 18 19 17 13 10 10 10 9 10 12 15 19 19 19 18 17 17 17 17 15 14 12 12 13 14 14 13 12 11 11 11 10 9 8 7 6 6 6 6 7
65 64 62 59 53 44 34 29 28 28 28 28 29 29 30 30 31 33 34 35 35 36 36 37 39 39 38 36 32 25 19 17 18 21 23 22 19 17 16 13 12 12 12 12 13 15 17 17 15 12 10 9 9 11 13 17 19 19 19 19 18 17 18 17 16 14 12 11 11 13 13 12 11 10 10 10 11 10 9 8 7 6 6 6 6
Wind_Speed
76 78 79 81 82 84 86 88 89 91 93 94 96 98 99 101 102 103 104 106 107 108 109 110 111 112 113 114 115 116 117 118 119 120 121 122 123 125 126 128 130 132 134 136 138 140 142 144 145 146 148 149 149 150 151 152 153 153 154 154 154 154 154 154 154 154 154 155 156 157 158 158 158 158 158 158 158 158 158 158 157 156 156 155 154
74 75 77 78 80 81 83 84 86 87 89 90 92 93 95 96 97 99 100 101 102 104 105 106 107 107 109 110 110 111 112 113 114 116 117 118 118 119 120 121 123 124 126 128 130 132 134 136 138 139 141 143 144 146 147 149 150 152 153 154 155 156 156 157 157 157 157 158 158 159 160 161 161 161 161 161 161 161 162 161 161 161 160 160 159
73 74 76 77 79 80 82 83 85 86 88 89 90 92 93 94 96 97 98 99 100 101 102 103 104 105 106 107 108 109 110 111 113 114 116 116 117 118 119 120 121 122 123 124 126 127 128 130 131 133 134 136 137 138 140 141 143 145 147 148 150 152 153 155 156 158 158 159 160 161 162 163 164 164 164 164 164 164 164 164 164 164 164 164 164
73 74 75 77 78 80 82 83 84 86 88 89 90 91 93 94 95 97 98 99 101 101 102 103 104 105 106 107 108 109 110 111 113 114 115 116 116 117 119 119 120 121 122 123 124 125 126 127 128 130 131 132 133 134 135 137 138 140 141 143 144 146 147 149 150 152 154 156 158 159 161 163 164 166 167 167 167 167 167 167 167 167 167 167 167
74 76 77 79 81 82 83 84 86 88 89 90 91 92 94 95 97 98 100 101 102 103 103 104 105 106 107 108 109 110 111 113 114 115 116 116 117 118 120 121 122 122 123 124 125 125 126 127 128 129 129 130 131 132 133 134 135 136 138 139 140 141 143 144 146 147 149 150 152 154 156 158 159 162 165 166 168 169 169 169 170 170 170 170 170
76 78 80 81 83 85 86 87 88 90 91 92 93 95 96 98 100 101 102 103 104 105 106 106 107 108 109 110 111 112 113 115 116 117 118 118 119 120 122 123 123 124 125 126 127 127 128 128 129 130 130 131 131 131 132 132 133 134 135 136 137 138 139 140 142 144 145 146 148 150 151 153 154 157 159 161 163 165 166 168 169 170 172 172 173
78 80 82 83 85 86 87 89 90 91 93 94 95 97 99 100 102 103 104 105 106 107 108 108 109 110 111 112 112 114 114 115 117 118 119 120 121 122 123 124 125 125 126 127 128 129 130 130 131 131 132 132 133 133 133 133 134 134 134 135 135 136 136 137 138 140 141 143 144 145 147 149 150 152 154 156 157 159 160 162 164 166 168 170 171
76 78 80 81 83 84 86 88 89 91 92 94 96 98 99 101 102 104 105 107 108 108 109 110 111 111 112 113 113 115 115 116 117 118 119 120 121 122 123 124 125 126 126 127 129 130 130 131 132 133 133 133 134 134 134 134 135 135 135 135 136 136 137 137 138 138 139 140 142 142 143 145 146 148 150 152 153 154 156 158 159 161 162 164 166
69 71 73 74 76 78 80 82 84 86 88 90 93 94 96 98 100 102 103 105 106 107 109 110 111 112 113 114 114 115 116 117 117 118 119 120 121 122 123 124 125 125 126 127 128 129 130 131 132 132 133 133 134 134 134 135 136 136 136 136 137 137 138 138 139 139 140 141 141 142 142 143 143 145 146 147 149 150 151 153 156 158 159 160 162
65 66 68 69 71 73 74 76 78 79 82 84 86 88 90 92 94 97 99 101 102 103 105 106 108 109 110 111 112 113 114 114 115 116 117 118 119 120 122 123 124 124 125 126 127 128 129 130 131 131 132 133 133 133 134 135 136 136 136 137 137 138 138 139 140 140 141 142 142 142 143 143 143 143 144 145 146 146 147 148 151 154 155 156 158
62 63 65 67 69 71 72 74 75 76 78 79 81 82 84 86 88 90 92 94 96 97 99 101 103 104 105 106 107 108 109 110 111 112 113 115 116 117 118 120 121 122 124 125 126 128 129 130 130 131 132 132 133 133 134 134 135 136 136 136 136 137 138 139 140 141 141 142 143 143 143 144 144 143 144 144 144 145 145 145 147 150 152 153 154
59 61 63 65 67 69 70 72 74 76 77 78 79 80 81 82 83 84 86 88 89 90 92 94 96 97 98 99 101 102 103 104 105 106 108 110 111 112 114 115 117 118 120 122 123 125 126 127 128 129 130 131 131 132 133 133 134 135 135 135 136 136 137 138 139 140 141 141 142 143 143 144 144 144 144 144 144 144 144 144 145 146 148 149 151
61 62 64 65 66 68 69 70 71 73 74 76 77 79 79 80 81 82 83 84 85 86 87 89 90 91 93 94 95 96 97 99 100 101 103 105 106 107 109 110 112 114 116 117 119 121 122 123 124 125 126 127 128 129 129 130 131 132 132 132 133 134 135 135 137 138 139 140 140 141 141 142 143 143 144 144 144 144 143 143 143 144 145 146 148
63 64 65 66 67 68 68 69 70 70 72 73 74 75 77 78 79 79 80 82 83 84 85 87 88 89 91 92 93 94 95 97 98 99 101 102 104 105 106 108 109 111 113 115 116 118 119 120 121 121 122 122 123 123 124 124 125 126 126 126 127 127 128 129 131 132 134 135 136 137 137 138 139 140 141 142 142 142 142 142 142 142 143 143 145
65 66 67 68 68 69 69 69 69 69 70 71 72 73 74 76 77 78 79 80 81 83 84 85 87 88 90 91 92 93 94 96 97 98 100 101 102 104 105 107 108 110 111 113 114 116 117 118 118 119 118 118 118 118 118 119 119 119 120 120 120 121 121 122 124 125 127 128 130 130 131 132 133 134 135 136 137 138 139 139 139 139 140 141 142
69 70 71 72 72 72 72 71 71 71 71 71 71 72 74 75 76 77 78 79 81 82 83 84 86 87 89 90 91 92 93 95 96 97 99 100 101 102 104 105 107 108 109 110 112 113 114 114 115 114 114 114 114 115 115 115 115 115 116 116 116 117 117 118 119 121 122 124 124 125 126 127 128 129 131 133 134 135 135 136 136 136 136 137 139
73 75 76 76 77 76 76 75 74 73 72 72 72 73 73 74 75 76 78 79 80 81 82 83 85 86 87 88 90 91 92 93 94 96 97 99 100 101 102 104 105 106 107 108 108 109 109 108 108 108 108 108 109 109 110 110 111 112 112 113 113 114 114 115 117 119 120 121 122 123 124 125 125 126 127 130 132 133 134 135 135 136 135 135 136
76 77 79 80 80 80 79 78 76 75 74 73 73 74 74 74 75 76 77 78 79 80 81 82 84 85 86 87 88 90 90 92 93 94 96 98 99 101 102 103 104 105 106 106 105 105 104 104 104 104 104 104 104 105 105 106 107 107 108 109 109 110 110 111 113 115 117 119 120 121 122 123 123 123 124 126 129 130 131 132 134 136 136 135 135
77 79 80 82 82 82 81 80 78 77 75 74 74 74 75 74 75 75 76 77 78 79 80 81 82 83 85 86 87 88 89 91 92 93 95 96 98 100 101 102 103 103 103 103 102 102 101 101 102 102 102 102 102 103 103 103 104 104 104 105 105 105 105 106 107 109 111 113 115 116 118 119 120 120 121 123 126 127 128 129 130 132 134 135 135
79 80 82 83 84 84 83 81 79 78 76 76 75 75 75 75 75 75 76 76 77 77 78 79 81 82 83 84 85 87 88 89 91 92 93 95 97 98 99 100 101 101 100 100 100 100 100 100 100 100 100 100 100 100 100 99 100 100 100 101 101 101 102 102 103 104 105 107 108 110 111 113 114 115 116 118 121 125 126 126 127 129 130 132 133
80 81 83 85 86 86 85 83 81 79 77 76 76 76 76 75 75 75 75 76 76 77 77 78 79 81 82 83 84 85 87 88 90 91 92 94 96 97 98 99 99 99 98 98 98 98 99 99 99 99 98 98 98 97 97 97 97 97 97 98 98 98 99 100 101 102 103 103 104 105 106 108 109 110 111 113 117 121 124 125 125 126 127 128 129
81 83 84 86 88 88 87 85 82 80 78 77 77 76 76 75 74 75 75 75 75 76 77 78 79 80 81 82 84 85 86 88 89 91 92 94 96 97 97 98 97 97 97 98 98 98 98 99 98 98 97 97 96 96 95 95 95 95 95 95 95 95 96 97 98 98 99 100 101 102 103 103 104 106 108 110 114 118 121 123 123 123 123 123 124
83 84 85 87 89 90 89 86 83 80 79 78 77 77 76 76 75 75 75 76 76 76 77 78 79 80 81 82 83 84 86 88 89 91 93 94 96 96 97 96 96 96 96 96 97 97 97 97 97 97 96 96 96 95 95 94 93 93 93 93 93 93 93 93 94 95 95 96 97 98 99 100 101 102 104 107 111 115 118 120 119 118 117 117 118
84 85 87 89 91 92 90 88 84 81 79 78 78 77 77 76 75 75 76 76 76 77 78 78 79 80 81 82 83 84 86 88 90 91 93 95 96 96 96 95 95 94 94 94 94 94 94 94 94 94 94 94 94 94 93 93 92 92 92 92 91 91 91 91 91 92 93 94 95 96 97 97 98 100 102 104 108 110 112 113 112 110 109 110 112
85 86 88 90 92 93 92 89 85 82 80 79 78 78 77 77 76 76 76 76 77 77 78 79 80 81 81 82 83 84 86 88 89 91 93 94 95 95 95 94 94 93 92 92 91 91 92 92 92 92 92 92 92 92 92 92 91 91 90 90 89 89 89 89 89 90 90 91 92 93 95 96 96 98 100 102 104 105 106 106 106 104 103 104 106
87 88 89 91 93 94 92 89 86 83 81 79 79 78 78 78 77 77 77 77 77 78 78 79 80 81 82 83 83 84 86 87 89 90 92 93 94 94 93 92 91 90 90 90 90 90 90 90 89 89 90 90 91 91 91 90 90 89 88 87 87 86 86 86 87 87 88 88 89 90 91 93 94 96 98 100 101 102 102 102 102 102 100 100 102
88 89 91 92 94 95 93 90 87 84 82 80 80 79 79 78 78 78 78 78 78 79 79 80 80 81 82 83 83 84 86 87 88 90 91 91 91 91 90 89 89 88 88 88 87 87 87 87 86 87 87 88 88 88 88 88 87 86 85 85 84 84 84 84 84 84 85 85 86 87 88 89 90 92 95 97 98 99 99 99 100 99 98 97 98
90 91 92 94 96 96 94 91 88 85 83 81 81 80 79 79 79 78 78 79 79 79 80 80 81 82 82 83 84 85 86 87 88 89 90 90 89 88 87 86 86 86 86 85 85 85 84 84 84 85 85 85 85 85 84 84 84 83 83 82 82 81 81 81 81 82 82 82 83 83 84 85 87 88 90 93 94 95 96 97 97 96 95 94 95
91 92 94 95 97 97 95 92 89 86 84 83 82 81 81 81 80 80 79 80 80 80 81 81 82 82 83 83 84 85 85 86 87 88 88 88 86 85 84 84 84 83 83 83 82 82 82 82 82 83 83 83 82 82 81 81 80 80 80 80 80 80 79 79 79 79 79 79 79 80 81 82 83 84 86 88 90 91 92 93 94 93 93 92 92
93 94 95 97 98 98 95 92 90 88 86 84 84 83 83 82 82 82 81 81 81 81 81 81 82 82 83 83 84 85 85 86 86 87 87 86 84 83 82 82 82 81 81 81 80 80 80 80 80 81 81 80 79 79 79 79 78 77 76 77 78 78 78 78 77 76 76 76 76 76 77 78 79 81 82 84 85 87 88 89 90 90 90 91 91
95 96 97 99 99 98 95 93 90 89 87 86 86 85 84 84 83 83 83 82 82 82 81 81 82 82 83 83 84 84 85 86 86 86 85 84 82 81 81 81 80 80 79 79 78 78 78 78 78 78 78 77 77 77 77 76 75 74 74 75 76 76 76 75 74 74 73 73 73 73 74 75 76 77 78 79 81 82 84 85 87 88 88 89 89
96 97 98 100 100 97 95 93 91 90 89 88 87 86 85 85 85 84 84 83 83 82 82 82 82 82 83 83 84 84 85 85 85 85 84 82 80 79 79 79 79 78 78 77 77 77 77 76 75 75 75 74 74 74 75 74 73 72 72 72 73 74 74 73 72 71 70 70 70 70 71 71 72 73 74 76 77 78 79 81 83 84 85 86 87
97 98 100 101 99 96 94 93 92 92 91 89 88 87 86 86 85 85 84 84 83 83 82 82 82 82 83 83 84 84 84 85 84 84 83 80 79 78 78 78 78 77 77 77 77 76 76 74 73 73 73 72 71 72 72 72 71 70 70 70 70 71 71 71 70 69 68 68 68 68 69 69 70 70 72 73 74 75 76 78 79 81 82 83 85
98 100 101 101 98 96 95 95 94 93 92 90 89 88 87 87 86 86 85 85 84 84 83 82 82 82 83 83 83 84 84 84 84 83 81 78 77 76 76 76 76 76 76 76 76 75 75 73 72 71 70 70 69 69 70 70 69 68 68 68 68 68 68 68 67 67 67 66 66 66 67 67 67 68 68 70 71 73 74 75 76 77 79 80 81
100 102 102 101 98 96 96 96 95 94 92 91 90 89 88 88 87 87 86 86 85 84 83 82 82 82 83 83 83 84 84 84 83 82 79 77 75 75 75 75 75 74 74 75 75 74 74 72 70 69 68 68 67 67 68 69 68 67 67 66 66 65 65 65 65 64 64 64 64 65 65 65 66 66 66 66 68 69 71 72 73 74 75 76 78
102 103 102 99 96 96 96 96 95 94 93 91 91 90 89 89 88 87 87 86 85 84 83 82 82 82 82 83 83 83 84 83 82 81 78 76 75 74 74 74 74 74 74 74 74 74 73 71 68 66 66 66 65 65 66 67 66 65 66 65 64 64 63 63 63 62 62 62 62 62 63 63 64 64 63 63 64 65 67 68 70 70 71 73 75
104 103 100 97 96 96 97 96 95 95 94 93 92 91 90 90 89 88 87 86 85 84 83 82 82 82 82 82 83 83 83 83 81 80 77 75 74 74 73 73 73 74 73 73 73 73 72 70 67 65 64 64 64 63 63 65 65 64 64 64 63 62 62 61 61 60 60 60 60 60 60 61 61 61 61 61 61 61 63 65 66 68 69 71 73
103 101 98 96 96 96 97 96 96 95 95 94 93 92 91 90 89 88 87 86 85 84 83 82 81 82 82 82 82 82 82 82 80 79 76 75 74 74 73 72 72 73 73 72 72 73 72 69 66 64 62 61 62 62 61 62 63 62 62 63 62 62 61 60 60 59 59 59 59 59 58 58 59 59 58 57 57 57 59 62 63 65 67 69 71
102 99 97 96 96 97 97 97 97 97 96 95 94 93 92 90 89 88 87 86 85 83 82 82 81 82 82 82 82 82 82 81 80 78 76 74 74 74 73 72 72 72 72 72 71 72 72 69 66 63 60 59 60 61 60 61 61 60 60 61 61 60 60 60 59 58 58 58 57 57 57 57 57 57 56 55 54 54 56 58 60 62 64 66 68
100 97 97 97 97 98 98 98 98 98 97 96 95 94 92 90 89 88 86 85 84 83 82 81 81 82 82 82 82 82 82 81 79 77 76 74 74 74 73 72 72 71 71 71 71 71 71 69 66 62 59 57 58 59 59 59 60 59 58 58 59 59 59 60 59 58 57 57 56 55 55 55 55 56 55 53 51 51 52 54 57 59 61 64 64
98 97 97 98 98 99 99 99 100 99 99 98 96 94 93 90 89 87 86 84 83 82 81 81 81 81 81 81 81 81 81 80 79 77 75 74 74 73 72 71 72 72 72 71 70 70 71 69 66 62 58 56 56 57 58 58 59 59 57 57 56 56 58 59 59 58 57 57 56 54 53 53 53 53 53 52 51 50 50 52 54 57 58 60 61
98 98 98 99 99 99 100 100 101 101 100 99 97 95 92 90 88 86 85 83 82 81 81 80 80 81 81 81 80 80 80 79 78 76 75 74 74 73 71 70 71 72 72 71 70 70 70 69 66 62 57 55 54 54 56 57 58 58 57 56 55 54 55 57 58 58 57 56 56 54 53 51 51 51 51 51 51 50 49 50 52 54 55 57 59
99 99 100 100 100 100 101 101 102 102 100 99 97 94 92 89 87 85 84 82 82 81 80 80 80 81 81 80 80 80 79 78 77 75 74 74 74 72 71 70 70 71 71 71 70 69 69 69 67 62 57 54 52 52 53 55 56 57 56 55 53 52 53 55 57 57 57 56 55 54 53 51 49 48 49 50 50 50 50 50 51 51 53 56 59
100 100 100 100 101 101 102 102 102 102 100 98 96 93 91 88 86 84 83 82 81 80 80 79 80 80 80 80 79 79 79 78 76 75 74 74 73 72 71 70 69 70 70 70 69 68 67 67 66 63 59 54 51 50 51 52 54 55 55 54 53 52 51 52 54 55 55 55 54 53 53 52 50 48 47 48 48 49 50 51 51 50 51 55 57
101 101 101 101 102 102 103 103 103 102 100 97 95 92 89 86 85 83 82 81 81 80 79 79 79 79 79 79 79 79 78 77 75 74 74 74 73 72 71 70 69 70 70 70 69 67 66 66 65 63 60 56 52 49 49 50 52 53 54 54 53 52 51 51 52 53 53 53 52 52 51 52 51 50 48 47 47 47 48 50 51 50 51 53 55
102 102 102 102 103 103 103 103 102 101 98 95 93 91 88 85 83 82 81 80 80 80 79 79 79 78 78 78 79 79 78 77 75 74 74 73 73 72 71 70 70 70 70 69 68 67 65 65 64 62 60 58 53 50 48 49 50 51 52 53 53 52 51 51 51 51 51 51 50 49 49 50 51 51 50 48 47 46 46 48 49 50 51 52 53
103 102 102 103 103 104 104 103 102 99 96 93 91 89 86 84 83 81 81 80 80 79 79 78 78 78 77 77 78 78 78 77 76 75 75 74 72 71 71 69 69 69 69 68 68 67 65 64 63 62 60 58 55 51 49 49 49 49 51 51 51 51 50 50 51 51 51 50 48 47 46 47 49 50 50 50 49 48 47 46 46 48 49 51 52
102 102 103 104 104 104 104 102 100 97 94 91 89 87 85 83 82 80 80 79 79 79 78 77 77 77 77 77 77 77 77 76 76 76 75 74 73 72 70 69 67 67 67 66 66 66 65 64 63 61 60 59 56 52 49 48 49 49 50 51 50 50 49 49 50 51 51 50 48 47 45 45 46 48 49 50 50 49 48 47 46 46 47 48 50
103 103 103 104 105 104 103 101 98 95 92 89 87 85 83 82 80 79 79 78 78 78 77 76 76 76 76 76 76 76 75 75 76 76 76 75 74 73 71 69 67 66 64 63 62 63 64 64 62 60 59 58 57 53 49 48 48 49 50 50 49 48 47 48 49 49 49 49 47 46 45 45 45 47 49 50 51 50 49 47 46 45 46 46 47
103 103 104 105 104 103 102 99 95 92 89 87 85 84 82 81 80 79 78 77 78 77 76 75 74 74 75 75 75 75 74 75 75 76 75 75 76 75 73 70 68 66 63 60 59 60 62 63 63 61 58 56 55 53 50 48 47 48 49 50 49 47 47 47 48 47 47 47 46 44 43 42 43 45 46 48 50 51 51 49 47 45 45 45 45
103 104 104 104 103 102 99 96 92 90 87 85 84 83 82 80 79 78 78 77 77 76 75 74 74 74 74 74 74 74 74 74 75 75 74 74 75 76 76 74 71 67 63 58 55 55 57 60 61 61 60 57 54 53 51 50 49 49 49 51 51 49 48 49 49 48 48 48 47 45 43 42 42 43 43 44 46 48 50 51 50 48 46 44 43
Wind_Direction
273 272 272 272 271 271 271 271 270 270 270 269 269 269 269 269 269 269 269 269 269 269 268 268 268 268 268 268 268 268 269 269 269 269 269 269 268 268 268 268 267 267 266 266 265 265 265 265 264 264 264 264 263 263 263 262 262 261 261 261 260 260 259 259 259 258 258 258 257 257 257 257 256 256 256 255 255 255 255 255 254 254 254 253 253
275 275 274 274 273 273 272 272 272 271 271 270 270 270 269 269 269 269 269 269 269 268 268 268 268 268 268 268 268 268 269 269 269 269 269 269 269 269 269 268 268 268 268 267 267 266 266 266 265 265 265 264 264 264 264 263 263 263 262 262 261 261 260 260 259 259 258 258 258 258 258 257 257 256 256 256 255 255 255 255 254 254 254 254 253
276 276 275 275 274 274 273 273 272 272 271 271 271 271 270 270 270 270 269 269 269 269 268 268 268 268 268 268 268 268 268 268 268 268 268 268 268 268 268 268 268 268 268 268 267 267 267 267 266 266 266 265 265 264 264 264 264 263 263 263 262 262 261 261 260 260 259 259 258 258 258 258 258 257 257 256 256 255 255 255 255 254 254 254 253
277 277 276 275 274 274 273 272 272 272 271 271 271 271 271 271 270 270 270 269 269 269 268 268 268 268 268 268 268 268 268 268 268 268 268 268 268 268 268 268 268 268 268 267 267 267 267 267 267 266 266 266 266 265 265 265 265 264 264 263 263 263 262 262 261 261 260 260 259 258 258 258 258 258 257 257 256 256 256 255 255 255 254 254 254
277 277 276 275 274 274 273 273 273 273 272 272 272 271 271 271 271 271 270 270 270 270 270 270 270 270 270 270 269 269 269 269 269 269 269 269 269 269 269 269 268 268 268 268 267 267 267 267 266 266 266 266 266 265 265 265 265 264 264 264 264 264 263 263 262 262 261 261 260 260 259 258 258 258 258 257 257 256 256 255 255 255 255 254 254
280 279 278 278 277 277 277 277 276 276 276 275 275 274 274 273 273 272 272 272 272 272 272 271 271 271 271 271 271 270 270 270 270 270 270 270 269 269 269 268 268 268 268 268 267 267 267 266 266 266 266 266 266 265 265 265 265 264 264 264 264 264 263 263 263 262 262 261 261 261 260 260 259 259 258 258 258 257 257 256 255 255 255 254 254
283 282 281 281 280 280 280 279 279 279 278 278 278 277 276 276 275 275 275 274 274 274 273 273 272 272 272 272 272 271 271 271 271 271 270 270 270 269 269 269 268 268 267 267 267 266 266 266 265 265 265 264 264 264 264 265 265 264 264 264 264 263 263 263 263 263 262 262 261 261 261 260 260 260 259 259 258 258 258 257 256 256 255 255 254
285 284 284 284 283 283 282 281 280 280 279 278 278 277 277 276 276 276 276 275 275 275 274 274 274 273 273 273 272 272 272 271 271 271 271 271 271 270 270 270 269 269 268 267 267 266 266 265 265 265 264 264 264 263 263 263 263 263 263 263 263 263 263 263 262 262 262 262 261 261 260 260 260 260 260 259 259 259 258 258 257 257 256 255 255
289 288 288 287 287 286 285 284 283 282 281 280 279 279 278 278 277 276 276 276 275 275 275 274 274 274 273 273 273 272 272 272 272 271 271 271 271 271 271 270 270 269 269 268 268 267 267 266 266 265 265 264 264 263 263 263 262 262 262 262 262 262 262 262 262 262 262 261 261 261 260 260 260 260 259 259 259 259 259 258 258 258 257 256 256
296 295 294 293 291 290 288 287 286 284 283 282 281 281 280 279 279 278 277 277 277 276 275 275 274 274 274 273 273 273 273 272 272 272 272 271 271 271 271 271 270 270 270 269 269 268 268 267 267 266 266 265 265 264 264 263 263 262 262 261 261 261 261 262 262 261 261 261 261 261 261 261 260 260 259 259 259 259 259 258 258 258 258 257 257
302 301 299 298 297 295 294 292 291 289 287 286 285 283 282 281 280 280 279 278 278 277 277 276 275 275 274 274 274 274 273 273 273 273 272 272 272 272 271 271 271 271 271 270 270 269 269 268 268 267 266 266 265 265 264 264 263 263 263 262 262 261 261 261 261 261 261 261 261 261 261 261 261 260 260 260 259 259 258 258 258 258 258 258 257
308 307 305 304 303 302 301 299 297 296 294 293 291 289 288 287 285 284 283 282 281 280 279 278 277 277 276 276 276 275 275 275 274 274 274 274 273 273 273 273 273 272 272 272 271 271 270 269 269 268 268 267 267 266 265 265 264 264 264 263 263 262 262 262 262 261 261 261 261 261 261 261 261 261 260 260 260 259 259 258 258 257 258 258 258
316 316 315 313 312 310 308 306 304 301 299 297 295 294 292 291 290 288 287 286 285 284 283 282 281 281 280 280 279 279 278 278 277 277 277 276 276 276 275 275 275 275 274 274 273 273 272 272 271 270 270 269 268 268 267 267 266 266 265 265 264 264 264 263 263 263 262 262 262 262 262 261 261 261 261 261 260 259 259 258 258 257 257 257 257
321 321 320 318 316 314 312 309 307 304 301 299 297 295 294 292 291 290 289 288 287 286 285 285 284 284 283 282 282 281 281 280 280 279 279 278 278 278 277 277 276 276 276 275 275 274 274 274 273 272 272 271 271 270 270 269 269 269 268 268 267 266 266 265 265 264 264 263 263 263 262 262 262 261 261 261 261 260 259 258 257 257 256 256 256
323 323 322 320 319 316 314 311 309 306 304 301 299 297 295 294 292 291 290 289 288 287 287 286 285 285 284 284 283 283 282 282 281 281 280 280 279 279 278 278 277 277 276 276 275 275 275 275 274 274 274 274 274 274 273 273 272 271 271 270 269 268 267 267 266 265 265 264 263 263 262 262 262 261 261 261 261 260 259 259 257 257 256 256 255
326 325 324 323 321 319 317 315 312 310 307 305 302 300 298 296 294 293 291 290 289 288 288 287 287 286 286 285 285 284 284 284 283 283 282 281 281 280 280 279 278 278 277 276 276 276 275 275 275 276 276 276 276 275 275 274 274 273 272 271 270 270 269 268 267 267 266 265 264 263 263 262 261 261 261 261 261 260 260 259 258 257 256 256 255
327 326 326 325 324 322 320 318 315 313 310 308 305 303 300 298 296 294 293 292 290 290 289 288 288 287 287 287 286 286 286 286 285 285 285 284 284 283 283 282 281 280 280 279 278 278 278 278 277 277 277 276 276 275 274 274 273 273 272 272 271 270 269 268 268 267 267 266 266 265 264 263 262 261 260 260 260 260 260 260 260 259 258 256 256
327 326 326 326 325 324 322 320 317 315 312 310 307 305 303 300 299 297 295 294 293 292 291 291 290 290 289 289 289 289 289 288 288 288 287 287 287 286 285 285 284 283 283 282 282 282 282 281 280 280 279 278 277 277 276 275 275 274 273 272 271 270 269 268 267 266 266 266 265 265 265 264 263 262 261 261 260 259 259 259 259 259 258 258 257
326 326 326 326 325 324 322 320 318 316 314 311 309 307 305 303 301 299 298 296 295 294 293 293 292 292 291 291 291 290 290 290 289 289 289 289 288 288 287 287 286 285 285 285 285 284 283 283 282 281 281 280 280 279 278 277 277 276 275 274 273 272 271 269 268 266 265 265 264 264 263 263 263 263 262 261 261 260 259 258 257 257 257 257 256
326 326 326 326 325 324 323 321 319 317 315 313 311 309 308 306 304 302 300 299 298 297 296 295 294 293 293 292 292 291 291 291 291 291 290 290 289 289 289 288 288 288 288 287 287 286 285 285 284 283 283 282 282 281 280 279 278 278 277 276 275 274 273 272 270 269 267 266 265 264 263 263 262 262 261 260 260 260 259 258 257 256 256 256 256
325 326 326 326 325 325 323 322 320 318 316 314 312 311 309 307 305 304 302 301 300 299 299 298 297 296 295 295 294 294 293 293 293 293 292 292 292 292 291 291 291 291 290 290 289 288 288 287 287 286 285 285 284 283 282 281 280 279 278 277 276 275 274 273 272 271 269 268 267 265 264 263 262 262 260 259 259 258 258 257 256 256 255 255 255
325 325 326 326 325 325 324 323 321 319 317 315 314 312 310 308 307 305 304 303 302 302 301 301 300 299 299 298 297 297 297 296 296 296 296 295 295 294 294 294 293 293 292 292 291 291 290 290 289 288 288 287 286 285 284 283 282 281 279 278 277 276 275 274 272 271 270 269 268 267 265 264 263 262 260 259 258 257 257 256 256 255 255 255 255
325 325 325 326 326 325 324 323 322 320 318 317 315 313 311 310 308 306 305 305 305 304 304 304 303 303 302 301 301 300 300 300 299 299 298 297 297 296 296 296 295 294 294 293 292 292 291 291 290 290 289 288 288 287 286 285 284 283 282 280 279 278 277 275 274 273 271 270 269 268 266 265 263 262 260 259 258 258 257 257 257 256 256 255 255
325 325 325 325 326 326 324 323 322 320 319 317 316 314 312 310 309 308 307 307 307 307 307 306 306 306 305 304 304 303 302 302 301 300 300 299 299 298 298 297 296 295 294 294 293 292 292 291 291 290 290 289 289 288 287 286 286 285 284 282 281 280 278 277 275 274 272 271 270 269 267 266 265 263 262 261 260 259 259 259 259 258 257 256 255
325 325 325 325 325 325 324 323 322 320 319 318 316 315 313 312 311 310 309 308 308 308 308 308 308 308 308 307 306 305 304 303 303 302 301 301 300 300 299 298 298 297 296 295 294 294 293 292 292 291 291 290 290 289 288 287 287 286 284 283 282 280 279 277 276 274 273 271 270 269 268 267 265 264 263 262 261 261 260 260 260 258 257 255 254
325 325 325 325 325 325 324 322 321 320 319 318 317 316 315 313 312 311 310 309 309 309 309 310 310 310 309 308 307 306 305 304 303 303 302 302 301 301 300 299 298 298 297 296 296 295 294 293 293 292 292 291 290 290 289 288 287 286 285 284 282 281 280 278 276 275 273 272 270 269 267 266 265 265 264 263 263 262 262 261 260 258 256 255 254
324 324 324 324 324 324 323 322 321 320 319 318 317 317 316 315 313 312 311 310 310 310 311 311 311 310 310 309 308 307 306 305 304 304 303 303 302 302 301 300 299 298 297 297 296 295 294 294 293 293 292 291 291 290 289 289 288 286 285 284 283 282 280 279 277 276 274 272 271 269 268 267 266 265 264 264 264 263 263 262 261 260 258 256 254
324 324 323 323 324 324 323 322 321 320 319 318 317 317 316 315 314 313 312 312 311 311 311 311 311 311 311 310 309 308 307 306 305 305 305 304 303 302 301 300 299 298 298 297 296 296 295 295 294 294 293 292 291 291 290 289 288 287 287 286 284 283 281 280 278 277 275 274 273 271 270 268 267 266 265 264 264 264 263 263 262 261 260 258 256
323 323 323 323 324 324 323 322 321 320 319 318 318 317 316 316 315 315 314 313 313 312 312 312 312 312 311 311 310 309 308 307 306 306 305 305 304 302 301 300 300 299 299 298 297 297 297 296 296 295 294 293 292 291 290 289 288 288 288 287 286 284 283 281 279 278 277 276 274 273 271 269 268 267 265 264 264 264 263 263 263 262 261 259 257
322 322 323 323 323 323 322 321 320 319 319 318 318 317 317 317 316 316 315 314 313 313 312 312 312 312 312 311 310 309 308 308 307 307 307 306 305 303 302 301 301 300 300 299 299 298 298 298 297 297 296 295 294 292 291 290 290 289 289 288 287 285 284 283 282 280 279 277 275 274 272 271 269 268 266 265 264 264 263 263 262 262 261 260 258
322 322 322 323 323 322 321 320 320 319 319 318 318 318 318 317 317 316 315 314 314 313 313 313 312 312 312 311 311 310 309 309 308 308 308 307 305 304 303 303 302 302 301 301 300 300 300 299 299 298 297 296 295 293 292 292 291 291 290 289 288 286 285 284 283 282 281 279 277 275 274 272 271 270 268 267 266 265 264 263 262 261 260 259 258
321 322 322 322 322 321 320 320 319 319 319 318 318 318 318 317 317 316 315 314 314 313 313 313 313 313 313 312 312 311 310 310 309 309 309 308 306 305 305 304 304 304 303 302 302 302 301 301 300 299 298 296 295 294 293 293 292 292 291 290 289 288 286 285 284 282 281 280 279 277 275 274 272 271 270 269 268 266 265 264 263 262 261 259 258
321 321 321 321 321 321 320 319 319 319 319 319 318 318 318 317 316 316 315 314 314 313 313 313 313 313 313 312 312 311 311 310 310 310 309 308 307 307 307 306 306 305 305 304 304 303 303 303 302 300 299 297 296 295 294 293 293 292 291 290 289 288 287 286 285 284 283 281 280 278 277 275 274 272 271 270 269 267 266 265 264 263 262 261 259
320 320 321 321 321 320 320 319 319 319 319 319 319 318 318 317 316 316 316 315 314 314 314 314 314 314 313 313 312 312 311 311 311 310 310 309 308 308 308 308 307 307 306 306 305 305 305 304 303 302 300 298 297 296 295 295 294 293 292 291 290 289 288 287 286 285 285 283 282 281 279 277 275 273 272 271 270 268 267 266 265 264 263 262 261
320 320 320 321 321 320 320 319 319 319 319 319 319 318 318 317 317 316 316 315 315 314 314 314 314 314 313 313 313 312 312 311 311 311 310 310 310 310 310 309 309 308 307 307 307 306 306 305 304 303 301 299 298 297 297 296 295 295 293 292 291 290 289 288 287 286 286 285 284 282 281 279 277 275 273 271 270 269 268 267 265 264 263 262 261
319 320 320 320 320 320 319 319 319 319 319 319 319 319 318 318 317 316 316 315 315 315 314 314 314 314 314 314 313 313 312 312 312 312 312 311 312 312 312 311 310 309 309 308 308 307 307 306 305 304 302 300 299 298 298 297 296 296 295 294 292 291 290 289 289 288 287 286 285 283 282 280 278 276 274 273 271 269 268 267 265 264 263 261 260
319 320 320 319 320 319 319 319 319 319 319 320 319 319 318 318 317 316 316 315 315 315 315 315 315 314 314 314 314 313 313 313 313 313 313 313 313 313 313 313 312 311 310 310 309 308 308 307 307 305 304 302 300 299 298 298 297 297 296 295 294 293 291 291 290 290 289 288 286 285 282 280 278 277 276 274 273 271 270 267 265 263 261 260 259
319 319 319 319 319 319 318 319 319 319 320 320 320 319 318 318 317 316 316 316 316 316 315 315 315 315 314 314 314 313 313 313 314 314 314 314 315 315 315 314 313 312 311 311 310 309 308 308 308 307 305 303 302 300 299 298 298 297 297 296 295 294 293 292 292 292 291 289 288 286 284 282 280 278 277 276 275 273 272 270 267 265 263 261 259
319 319 319 319 319 318 318 319 319 320 320 320 320 319 318 318 317 317 317 316 316 316 316 316 315 315 315 315 314 314 314 314 315 315 315 316 316 316 316 315 314 313 312 312 311 310 309 309 308 308 306 305 303 301 300 299 298 298 298 297 297 296 296 295 294 293 292 291 290 288 286 285 283 281 279 278 277 275 273 271 270 268 266 263 261
318 318 318 319 319 318 318 319 319 320 320 320 320 319 319 318 318 317 317 317 317 316 316 316 316 315 315 315 315 315 315 315 316 316 317 317 317 317 317 316 315 314 313 313 312 311 310 309 309 308 307 306 304 302 301 300 299 299 298 298 298 298 298 297 296 295 294 292 291 290 289 287 286 285 283 282 280 278 275 273 271 268 266 265 264
318 318 318 319 319 318 319 319 320 320 320 320 320 319 319 319 318 317 317 317 317 316 316 316 316 315 315 315 315 315 316 316 317 317 317 318 318 318 318 317 316 315 314 314 313 312 311 310 309 309 309 307 306 304 302 301 300 299 299 299 299 299 299 298 297 296 295 294 293 291 290 290 289 288 287 286 284 281 278 275 272 269 268 266 265
318 318 318 319 318 318 319 320 320 320 321 321 320 319 319 319 318 318 318 317 317 317 316 316 316 316 316 316 316 316 316 317 317 318 318 318 319 318 318 318 317 316 315 315 314 313 312 310 310 310 310 309 307 305 304 302 301 300 300 299 299 300 300 299 298 297 296 295 294 293 292 291 291 291 290 289 287 284 281 277 274 272 270 268 265
318 318 318 318 318 318 319 320 320 320 321 321 320 319 319 319 318 318 318 318 317 317 317 317 316 316 316 316 316 316 316 317 318 318 319 319 319 319 319 318 318 317 316 315 315 313 312 311 310 310 310 310 308 307 305 303 301 301 300 300 300 300 300 300 299 298 297 296 295 295 294 293 293 292 292 291 289 287 284 280 276 273 271 269 267
318 318 318 318 318 318 319 320 320 321 321 320 319 319 319 319 319 318 318 318 317 317 317 317 317 316 316 316 316 316 317 317 318 319 320 320 320 320 319 319 318 317 316 315 315 314 313 312 311 311 311 311 310 308 306 303 302 301 301 301 301 300 300 300 299 299 298 297 297 297 296 296 295 294 293 292 290 289 286 283 279 276 272 270 268
318 318 318 318 318 319 320 320 320 321 320 320 319 319 319 319 319 319 318 318 317 317 317 317 317 316 316 316 316 317 317 318 319 320 320 321 320 320 320 320 319 318 317 316 315 315 314 313 312 312 312 311 311 310 307 304 303 302 302 302 302 301 301 300 300 299 297 297 297 298 298 298 298 297 295 293 292 290 287 284 281 278 274 272 270
318 318 318 318 318 319 320 320 320 320 320 319 319 318 319 319 319 319 318 318 317 317 317 317 317 317 316 316 317 317 318 319 320 320 321 321 321 321 320 320 320 319 317 317 316 316 315 314 313 313 313 312 312 311 309 305 304 303 303 303 302 303 302 302 301 299 298 297 297 299 300 300 300 299 298 296 294 291 288 284 282 280 277 274 272
317 318 318 318 318 319 320 320 320 320 319 319 318 318 319 319 319 319 318 318 317 317 317 317 317 317 317 317 317 318 318 319 320 321 321 322 321 321 320 320 320 319 318 318 318 317 316 315 314 314 314 313 312 312 310 307 305 304 303 303 303 303 303 303 302 300 299 298 298 298 300 300 301 300 300 298 297 294 291 286 282 279 277 275 273
317 317 317 318 319 319 320 320 320 319 318 318 318 318 319 319 319 318 318 318 317 317 317 317 317 317 317 317 318 318 319 320 321 322 322 322 321 321 320 320 320 319 319 319 319 318 317 316 315 315 315 313 313 313 311 308 307 306 305 304 304 304 304 304 303 302 301 300 299 300 301 301 301 300 300 299 297 296 294 290 286 281 277 275 273
317 317 317 318 319 319 319 319 319 318 318 318 318 318 318 319 318 318 318 318 317 317 317 317 318 317 317 317 318 319 320 321 322 322 322 322 321 320 320 320 320 319 319 320 320 319 317 316 315 315 315 314 313 313 312 310 308 306 305 304 304 304 304 304 303 302 301 300 301 302 303 303 303 302 301 301 299 297 295 292 288 284 280 276 273
316 317 317 318 318 319 319 319 318 317 317 318 318 318 318 318 318 318 318 318 317 317 317 318 318 317 317 317 318 319 320 322 323 323 323 322 321 321 320 321 320 320 321 321 322 321 319 317 316 315 315 314 313 312 311 309 307 306 305 305 305 305 306 305 304 303 302 300 300 301 302 303 303 302 302 301 300 299 297 295 291 287 282 278 275
316 317 317 318 318 318 318 318 317 317 317 317 318 318 318 318 318 318 318 318 317 317 317 318 318 317 317 318 319 320 321 322 323 323 323 323 322 322 321 321 321 321 322 322 323 322 320 318 317 316 315 315 314 313 312 311 310 309 309 308 308 309 309 308 307 307 305 303 303 304 304 304 304 303 302 301 299 297 296 295 293 290 286 281 277